[[{"header":{"parameterUnit":"m.s-1","parameterCategory":1,"la1":30.2991,"la2":30.254,"lo1":-89.0895,"lo2":-89.0444,"dy":0.0017,"dx":0.0017,"nx":28,"ny":28,"refTime":"2025-02-05T03:00:00:Z","depth":0,"parameterNumber":2,"parameterNumberName":"U-component_of_WINDS"},"data":[0,0,0,0,0,0,0,0,0,0,0,0,0,0,0,0,0,0,0,0,0,0,0,0,0,0,0,0,0,0,0,0,0,0,0,0,0,0,0,0,0,0,0,0,0,0,0,0,0,0,0,0,0,0,0,0,0,0,-1.187,-1.187,0,-1.1859,-1.1859,-1.1859,-1.1817,-1.1816,-1.1815,-1.1814,-1.1804,-1.1804,-1.1805,0,0,0,0,0,0,0,0,0,0,0,0,0,-1.1854,-1.1855,-1.187,-1.187,-1.187,-1.1859,-1.1859,-1.1859,-1.1817,-1.1816,-1.1814,-1.1813,-1.1804,-1.1804,-1.1805,0,0,0,0,0,0,0,0,0,0,0,0,0,-1.1854,-1.1855,-1.187,-1.1847,-1.1845,-1.186,-1.1859,-1.1859,-1.1817,-1.1816,-1.1814,-1.1813,-1.1803,-1.1804,-1.1805,-1.1841,0,0,-1.1808,-1.1809,0,0,0,0,0,0,0,0,-1.1854,-1.1855,-1.1851,-1.1849,-1.1847,-1.1838,-1.185,-1.1853,-1.1817,-1.1828,-1.1814,-1.1812,-1.1816,-1.1816,-1.1817,-1.184,-1.184,-1.1808,-1.1809,-1.1809,-1.181,0,0,0,0,0,0,0,-1.1854,-1.1855,-1.1866,-1.1851,-1.1848,-1.1838,-1.1836,-1.185,-1.1831,-1.1827,-1.1824,-1.1823,-1.1815,-1.1817,-1.1817,-1.184,-1.1808,-1.1809,-1.181,-1.181,-1.189,-1.1892,0,0,0,0,0,0,-1.1857,-1.1855,-1.1866,-1.1866,-1.1847,-1.1839,-1.1838,-1.1842,-1.183,-1.1827,-1.1824,-1.1821,-1.1816,-1.1816,-1.1816,-1.1856,-1.1809,-1.181,-1.1811,-1.1889,-1.1891,-1.1892,0,0,0,0,0,0,-1.1857,-1.1859,-1.1867,-1.186,-1.186,-1.1841,-1.1847,-1.1843,-1.1844,-1.1828,-1.1825,-1.183,-1.1814,-1.1815,-1.1835,-1.1855,-1.1811,-1.1812,-1.1887,-1.1889,-1.1891,-1.1937,0,0,0,0,0,0,-1.1857,-1.1859,-1.1872,-1.186,-1.186,-1.1885,-1.1848,-1.1844,-1.1846,-1.1842,-1.1832,-1.1829,-1.1813,-1.1833,-1.1836,-1.1856,-1.1812,-1.1885,-1.1888,-1.1891,-1.1933,-1.194,-1.1946,0,0,0,0,0,-1.1857,-1.1886,-1.1873,-1.1875,-1.1876,-1.1886,-1.1886,-1.1867,-1.1848,-1.1861,-1.1851,-1.183,-1.1853,-1.1836,-1.1838,-1.1859,-1.1884,-1.1887,-1.189,-1.193,-1.1939,-1.1946,0,0,0,0,0,0,-1.1901,-1.1884,-1.1869,-1.1896,-1.1893,-1.1879,-1.1895,-1.1877,-1.188,-1.1876,-1.1852,-1.185,-1.1873,-1.1868,-1.1849,-1.1892,-1.1865,-1.1869,-1.1894,-1.1902,-1.1909,-1.1909,-1.1813,0,0,0,0,0,-1.1914,-1.1923,-1.1908,-1.1932,-1.1932,-1.1914,-1.1917,-1.1903,-1.1899,-1.1898,-1.1889,-1.1886,-1.1892,-1.1897,-1.1903,-1.1933,-1.1929,-1.1948,-1.1955,-1.196,-1.1963,-1.1978,-1.1985,-1.1904,-1.1904,-1.1904,0,0,-1.1941,-1.1932,-1.194,-1.1941,-1.1937,-1.1947,-1.1913,-1.1925,-1.1932,-1.19,-1.1917,-1.1911,-1.1906,-1.1931,-1.1941,-1.1927,-1.1985,-1.1964,-1.1969,-1.1969,-1.1982,-1.199,-1.1997,-1.1906,-1.1906,-1.1905,0,0,-1.1994,-1.1989,-1.2008,-1.2005,-1.1999,-1.1987,-1.1992,-1.1981,-1.1975,-1.1992,-1.1967,-1.1976,-1.1988,-1.1985,-1.1986,-1.2038,-1.2018,-1.2041,-1.2074,-1.2088,-1.2095,-1.21,-1.2118,-1.2124,-1.2044,-1.2045,-1.2045,0,-1.2027,-1.2041,-1.202,-1.2034,-1.2035,-1.2006,-1.2025,-1.2023,-1.2019,-1.2021,-1.2005,-1.2019,-1.2014,-1.2037,-1.205,-1.2052,-1.2056,-1.2041,-1.2096,-1.2101,-1.2106,-1.2122,-1.2129,-1.2047,-1.2047,-1.2047,-1.2046,0,-1.2082,-1.2093,-1.2109,-1.2105,-1.2109,-1.2125,-1.2107,-1.2113,-1.2098,-1.2088,-1.2105,-1.2098,-1.2101,-1.2106,-1.2092,-1.2127,-1.2118,-1.21,-1.2071,-1.2116,-1.2131,-1.2137,-1.2051,-1.205,-1.2049,-1.2048,0,0,-1.2162,-1.2147,-1.2153,-1.2151,-1.2143,-1.215,-1.2165,-1.2168,-1.2172,-1.2172,-1.2183,-1.2194,-1.2176,-1.2177,-1.2162,-1.2175,-1.2216,-1.2155,-1.2154,-1.2165,-1.2252,-1.2265,-1.2273,-1.2203,-1.2204,-1.2205,-1.2252,0,-1.2212,-1.2236,-1.2218,-1.2245,-1.2254,-1.2226,-1.2239,-1.2236,-1.2226,-1.2232,-1.2223,-1.223,-1.2207,-1.2207,-1.2218,-1.2208,-1.2232,-1.2205,-1.2213,-1.2213,-1.2213,-1.2281,-1.2294,-1.2339,-1.2258,-1.2259,-1.2259,0,-1.2273,-1.2273,-1.2301,-1.229,-1.2293,-1.2305,-1.2305,-1.2312,-1.2307,-1.2299,-1.23,-1.2282,-1.2296,-1.227,-1.2288,-1.227,-1.2272,-1.2268,-1.2269,-1.2268,-1.2238,-1.228,-1.2353,-1.2359,-1.2269,-1.2268,-1.2267,0,-1.2326,-1.2335,-1.2352,-1.2351,-1.2339,-1.2348,-1.2343,-1.2337,-1.234,-1.234,-1.2341,-1.2344,-1.2345,-1.2347,-1.2331,-1.2313,-1.2351,-1.2323,-1.2344,-1.2345,-1.2352,-1.2352,-1.2425,-1.2357,-1.2357,-1.2357,-1.2357,0,-1.2382,-1.24,-1.2376,-1.2386,-1.2406,-1.2385,-1.2404,-1.2397,-1.2392,-1.24,-1.2378,-1.2386,-1.2364,-1.2371,-1.2358,-1.2375,-1.2376,-1.237,-1.2366,-1.2371,-1.2371,-1.2371,-1.2367,-1.2358,-1.2358,-1.2358,-1.2357,0,-1.2445,-1.2429,-1.2446,-1.2433,-1.2431,-1.2445,-1.2434,-1.2443,-1.2433,-1.2444,-1.2446,-1.2429,-1.2436,-1.242,-1.2424,-1.2415,-1.2438,-1.2431,-1.244,-1.2437,-1.2458,-1.2456,-1.2532,-1.2541,-1.2469,-1.247,-1.247,0,-1.2481,-1.2494,-1.2482,-1.2486,-1.2483,-1.249,-1.2492,-1.2472,-1.2475,-1.247,-1.248,-1.2485,-1.2487,-1.2498,-1.2487,-1.249,-1.248,-1.2507,-1.2481,-1.2485,-1.2479,-1.2478,-1.2478,-1.2512,-1.2513,-1.2514,-1.2514,0,-1.2546,-1.2538,-1.2541,-1.2542,-1.2545,-1.2545,-1.2544,-1.2548,-1.2527,-1.2532,-1.2538,-1.2539,-1.2543,-1.2548,-1.2548,-1.2543,-1.2525,-1.2523,-1.2528,-1.2532,-1.2536,-1.2533,-1.2453,-1.2521,-1.252,-1.252,-1.2519,-1.2519,-1.2596,-1.2605,-1.2598,-1.2603,-1.26,-1.2598,-1.2606,-1.2596,-1.2601,-1.2602,-1.259,-1.2599,-1.2593,-1.2591,-1.2589,-1.2595,-1.2583,-1.259,-1.2591,-1.2593,-1.2596,-1.2537,-1.2595,-1.2595,-1.2595,-1.2595,-1.2594,0,-1.2658,-1.2652,-1.2657,-1.2655,-1.2658,-1.2641,-1.2638,-1.2642,-1.265,-1.2646,-1.2649,-1.2655,-1.2659,-1.2648,-1.265,-1.2657,-1.2649,-1.2658,-1.2657,-1.2656,-1.2607,-1.2602,-1.2665,-1.2665,-1.2665,-1.2665,-1.2665,-1.2665,-1.2691,-1.2706,-1.2697,-1.271,-1.2704,-1.2711,-1.2711,-1.271,-1.2707,-1.2715,-1.2718,-1.271,-1.2703,-1.2705,-1.2708,-1.2704,-1.2706,-1.2718,-1.2711,-1.2666,-1.2659,-1.2653,-1.2648,-1.2719,-1.2719,-1.2759,-1.2759,-1.276]},{"header":{"parameterUnit":"m.s-1","parameterCategory":1,"la1":30.2991,"la2":30.254,"lo1":-89.0895,"lo2":-89.0444,"dy":0.0017,"dx":0.0017,"nx":28,"ny":28,"refTime":"2025-02-05T03:00:00:Z","depth":0,"parameterNumber":3,"parameterNumberName":"V-component_of_WINDS"},"data":[0,0,0,0,0,0,0,0,0,0,0,0,0,0,0,0,0,0,0,0,0,0,0,0,0,0,0,0,0,0,0,0,0,0,0,0,0,0,0,0,0,0,0,0,0,0,0,0,0,0,0,0,0,0,0,0,0,0,2.2912,2.2912,0,2.295,2.295,2.2951,2.2971,2.2971,2.2971,2.2971,2.3008,2.3009,2.301,0,0,0,0,0,0,0,0,0,0,0,0,0,2.2857,2.2858,2.2912,2.2912,2.2913,2.295,2.295,2.2951,2.2971,2.2971,2.2971,2.2971,2.3008,2.3009,2.301,0,0,0,0,0,0,0,0,0,0,0,0,0,2.2887,2.2859,2.2912,2.2928,2.2929,2.295,2.295,2.2951,2.2971,2.2971,2.2971,2.2971,2.3007,2.3009,2.301,2.3017,0,0,2.3015,2.3015,0,0,0,0,0,0,0,0,2.2885,2.2889,2.2925,2.2926,2.2929,2.2956,2.2945,2.2973,2.2971,2.2955,2.2971,2.2971,2.2991,2.2993,2.3,2.3019,2.3021,2.3015,2.3016,2.3016,2.3017,0,0,0,0,0,0,0,2.2883,2.2887,2.2927,2.2925,2.2928,2.2933,2.2937,2.295,2.2972,2.2956,2.2958,2.2962,2.2992,2.2999,2.3001,2.3021,2.3015,2.3016,2.3017,2.3017,2.3051,2.3051,0,0,0,0,0,0,2.2879,2.2885,2.2926,2.2928,2.2907,2.2934,2.2938,2.2947,2.2972,2.2976,2.2962,2.2963,2.2996,2.3,2.3003,2.3015,2.3016,2.3017,2.3018,2.3051,2.3051,2.3051,0,0,0,0,0,0,2.2877,2.2882,2.2924,2.2907,2.2913,2.2934,2.2944,2.2948,2.2955,2.2976,2.298,2.2966,2.2997,2.3001,2.3014,2.3016,2.3018,2.3019,2.3051,2.3051,2.3051,2.3037,0,0,0,0,0,0,2.2876,2.2881,2.2884,2.2907,2.2914,2.2935,2.2944,2.2948,2.2958,2.2959,2.298,2.2984,2.2997,2.3012,2.3016,2.3018,2.302,2.3051,2.3051,2.3051,2.3038,2.3037,2.3036,0,0,0,0,0,2.2874,2.2878,2.2884,2.2889,2.2918,2.2935,2.2939,2.2954,2.2958,2.2961,2.2975,2.2983,2.3015,2.3013,2.3018,2.302,2.3051,2.3051,2.3051,2.3038,2.3037,2.3036,0,0,0,0,0,0,2.2853,2.2881,2.2888,2.29,2.2915,2.2939,2.2943,2.2952,2.2966,2.2967,2.2985,2.299,2.3002,2.3013,2.301,2.303,2.3034,2.3035,2.3023,2.3022,2.3021,2.3019,2.3022,0,0,0,0,0,2.285,2.2862,2.2886,2.2894,2.2901,2.2921,2.2929,2.294,2.2956,2.2962,2.2977,2.2992,2.3006,2.3015,2.3028,2.3039,2.3045,2.3044,2.3043,2.3042,2.3043,2.3052,2.3052,2.3051,2.3051,2.3051,0,0,2.2844,2.286,2.2867,2.289,2.2903,2.2916,2.2926,2.2938,2.2948,2.2964,2.2978,2.299,2.3008,2.3021,2.3028,2.303,2.3045,2.3042,2.3042,2.3043,2.3052,2.3052,2.3052,2.3051,2.3051,2.3051,0,0,2.2839,2.2852,2.2862,2.2875,2.2895,2.2909,2.2911,2.2934,2.2942,2.2957,2.297,2.2982,2.3005,2.3018,2.3028,2.3031,2.3039,2.3034,2.3031,2.3039,2.3039,2.3039,2.3042,2.3042,2.3035,2.3035,2.3035,0,2.2828,2.2848,2.2865,2.2877,2.2888,2.2905,2.2915,2.2927,2.295,2.2957,2.296,2.2991,2.3004,2.3021,2.3022,2.3029,2.3033,2.3032,2.3038,2.3038,2.3039,2.3041,2.3042,2.3034,2.3034,2.3034,2.3034,0,2.2834,2.2848,2.2853,2.2877,2.2888,2.2899,2.2919,2.2928,2.2938,2.2952,2.2968,2.2985,2.3003,2.3008,2.3017,2.3028,2.3029,2.3034,2.3039,2.3038,2.3041,2.3042,2.3033,2.3034,2.3034,2.3034,0,0,2.2816,2.2851,2.2853,2.2865,2.289,2.2901,2.2913,2.2932,2.2941,2.2957,2.2968,2.2989,2.2995,2.3006,2.3017,2.3024,2.3028,2.3029,2.303,2.303,2.3042,2.3039,2.3039,2.3034,2.3034,2.3034,2.3041,0,2.2816,2.2839,2.2857,2.2874,2.2888,2.2905,2.2916,2.2933,2.2946,2.296,2.2974,2.2989,2.2995,2.3002,2.301,2.3026,2.3031,2.3025,2.3046,2.3046,2.3041,2.3041,2.3036,2.3042,2.3042,2.3043,2.3043,0,2.2818,2.2835,2.2854,2.288,2.2886,2.2896,2.2916,2.2929,2.2949,2.2958,2.2972,2.2984,2.2999,2.3002,2.3024,2.302,2.3029,2.3038,2.3039,2.3042,2.3045,2.3045,2.3044,2.3045,2.3044,2.3044,2.3044,0,2.2804,2.2832,2.2848,2.2858,2.2887,2.2894,2.2907,2.2927,2.2938,2.2956,2.2964,2.2982,2.2993,2.3007,2.3024,2.3025,2.3045,2.3049,2.3053,2.3053,2.3057,2.3057,2.3059,2.3062,2.3061,2.3061,2.3061,0,2.2802,2.2814,2.2843,2.2852,2.2866,2.2886,2.29,2.2914,2.2932,2.2945,2.2961,2.2973,2.2994,2.3009,2.3023,2.304,2.3044,2.3052,2.3056,2.3051,2.305,2.3058,2.3059,2.3062,2.3062,2.3062,2.3062,0,2.2789,2.2809,2.2828,2.2856,2.2863,2.2872,2.2896,2.2906,2.2921,2.2938,2.2943,2.2967,2.2985,2.3004,2.3029,2.3038,2.3055,2.3059,2.3048,2.3051,2.3055,2.3055,2.3062,2.3065,2.3065,2.3065,2.3065,0,2.2787,2.2797,2.2826,2.2837,2.285,2.2866,2.2878,2.2899,2.2911,2.2936,2.2944,2.2964,2.2981,2.301,2.3029,2.3049,2.3054,2.3056,2.3057,2.3053,2.3056,2.3056,2.3058,2.3055,2.3055,2.3055,2.3055,0,2.2781,2.2792,2.2809,2.2831,2.2845,2.2863,2.2881,2.2888,2.2913,2.2926,2.2946,2.2959,2.2986,2.3006,2.3029,2.3042,2.3053,2.3055,2.3057,2.3053,2.3047,2.3052,2.3048,2.3054,2.3054,2.3054,2.3054,2.3054,2.2775,2.2785,2.2808,2.2828,2.2844,2.2861,2.2873,2.2891,2.2908,2.2932,2.2943,2.2964,2.2985,2.3017,2.303,2.3047,2.305,2.3053,2.3054,2.3054,2.3054,2.3044,2.3051,2.3051,2.3051,2.3051,2.3051,0,2.2771,2.2788,2.2805,2.2831,2.2847,2.2857,2.2879,2.2891,2.2909,2.2929,2.2947,2.2971,2.2991,2.3013,2.3035,2.3044,2.305,2.3049,2.3049,2.3052,2.3049,2.3046,2.3044,2.3044,2.3044,2.3044,2.3044,2.3044,2.2771,2.279,2.2803,2.283,2.2847,2.2868,2.2879,2.2896,2.2912,2.2939,2.2956,2.2971,2.2992,2.3016,2.3035,2.3041,2.3049,2.3047,2.3054,2.3051,2.3052,2.3052,2.3049,2.3048,2.3048,2.3056,2.3056,2.3056]}]]